{"data":{"norad_id":65966,"intl_designator":"2025-228V","name":"KUIPER-00141","alt_names":[],"object_type":"PAYLOAD","status":"ACTIVE","operator":null,"country":"US","launch_date":"2025-10-14","launch_site_code":"AFETR","launch_vehicle":null,"mission":null,"orbit_class":"UNKNOWN","rcs_meters":null,"size_class":null,"mass_kg":null,"dimensions":null,"purposes":[],"wikipedia_slug":null,"has_3d_model":false,"image_url":null,"decayed_at":null,"tle_current":{"epoch":"2026-05-24T23:48:19.327104Z","epoch_age_seconds":86265,"freshness":"FRESH","line1":"1 65966U 25228V   26144.99189036  .00003356  00000+0  46892-3 0  9991","line2":"2 65966  51.9036   3.2976 0000762 106.7199 253.3847 14.79941738 34803","mean_motion":14.79941738,"eccentricity":7.62e-5,"inclination_deg":51.9036,"raan_deg":3.2976,"arg_perigee_deg":106.7199,"mean_anomaly_deg":253.3847,"bstar":0.00046892,"rev_number":3480,"period_min":97.301127674527,"perigee_km":628.97406305752,"apogee_km":630.04202816247,"semimajor_km":7007.64504561,"source":"CELESTRAK","updated_at":"2026-05-25T13:38:05.872004Z"}}}